owner,sensor,date,latitude,longitude,sea_surface_height_above_sea_level,qcFlag 
TCOON,ioos:station:TCOON:524:1,2016-03-01T00:30:00Z,29.8672,-93.9310,1.67,1111122 
TCOON,ioos:station:TCOON:524:1,2016-03-01T02:18:00Z,29.8672,-93.9310,1.696,1111122 
TCOON,ioos:station:TCOON:524:1,2016-03-01T03:18:00Z,29.8672,-93.9310,1.693,1111122 
TCOON,ioos:station:TCOON:524:1,2016-03-01T04:18:00Z,29.8672,-93.9310,1.681,1111122 
TCOON,ioos:station:TCOON:524:1,2016-03-01T09:18:00Z,29.8672,-93.9310,1.515,1111122 
TCOON,ioos:station:TCOON:524:1,2016-03-01T10:18:00Z,29.8672,-93.9310,1.502,1111122 
TCOON,ioos:station:TCOON:524:1,2016-03-01T11:18:00Z,29.8672,-93.9310,1.495,1111122 
TCOON,ioos:station:TCOON:524:1,2016-03-01T12:18:00Z,29.8672,-93.9310,1.527,1111122 
TCOON,ioos:station:TCOON:524:1,2016-03-01T13:18:00Z,29.8672,-93.9310,1.563,1111122 
TCOON,ioos:station:TCOON:524:1,2016-03-01T15:36:00Z,29.8672,-93.9310,1.62,1111122 
TCOON,ioos:station:TCOON:524:1,2016-03-01T16:18:00Z,29.8672,-93.9310,1.661,1111122 
TCOON,ioos:station:TCOON:524:1,2016-03-01T17:18:00Z,29.8672,-93.9310,1.686,1111122 
TCOON,ioos:station:TCOON:524:1,2016-03-01T18:18:00Z,29.8672,-93.9310,1.718,1111122 
TCOON,ioos:station:TCOON:524:1,2016-03-01T19:36:00Z,29.8672,-93.9310,1.748,1111122 
TCOON,ioos:station:TCOON:524:1,2016-03-01T20:24:00Z,29.8672,-93.9310,1.772,1111122 
TCOON,ioos:station:TCOON:524:1,2016-03-01T21:24:00Z,29.8672,-93.9310,1.784,1111122 
TCOON,ioos:station:TCOON:524:1,2016-03-01T22:18:00Z,29.8672,-93.9310,1.781,1111122 
TCOON,ioos:station:TCOON:524:1,2016-03-01T23:18:00Z,29.8672,-93.9310,1.775,1111122 
TCOON,ioos:station:TCOON:524:1,2016-03-02T00:18:00Z,29.8672,-93.9310,1.766,1111122 
TCOON,ioos:station:TCOON:524:1,2016-03-02T01:18:00Z,29.8672,-93.9310,1.766,1111122 
TCOON,ioos:station:TCOON:524:1,2016-03-02T02:18:00Z,29.8672,-93.9310,1.751,1111122 
TCOON,ioos:station:TCOON:524:1,2016-03-02T03:24:00Z,29.8672,-93.9310,1.72,1111122 
TCOON,ioos:station:TCOON:524:1,2016-03-02T04:24:00Z,29.8672,-93.9310,1.679,1111122 
TCOON,ioos:station:TCOON:524:1,2016-03-02T05:54:00Z,29.8672,-93.9310,1.609,1111122 
TCOON,ioos:station:TCOON:524:1,2016-03-02T06:24:00Z,29.8672,-93.9310,1.595,1111122 
TCOON,ioos:station:TCOON:524:1,2016-03-02T07:24:00Z,29.8672,-93.9310,1.569,1111122 
TCOON,ioos:station:TCOON:524:1,2016-03-02T08:24:00Z,29.8672,-93.9310,1.498,1111122 
TCOON,ioos:station:TCOON:524:1,2016-03-02T09:42:00Z,29.8672,-93.9310,1.428,1111122 
TCOON,ioos:station:TCOON:524:1,2016-03-02T10:18:00Z,29.8672,-93.9310,1.39,1111122 
TCOON,ioos:station:TCOON:524:1,2016-03-02T11:18:00Z,29.8672,-93.9310,1.424,1111122 
TCOON,ioos:station:TCOON:524:1,2016-03-02T12:18:00Z,29.8672,-93.9310,1.388,1111122 
TCOON,ioos:station:TCOON:524:1,2016-03-02T13:18:00Z,29.8672,-93.9310,1.397,1111122 
TCOON,ioos:station:TCOON:524:1,2016-03-02T14:18:00Z,29.8672,-93.9310,1.431,1111122 
TCOON,ioos:station:TCOON:524:1,2016-03-02T15:18:00Z,29.8672,-93.9310,1.551,1111122 
TCOON,ioos:station:TCOON:524:1,2016-03-02T16:18:00Z,29.8672,-93.9310,1.507,1111122 
TCOON,ioos:station:TCOON:524:1,2016-03-02T17:18:00Z,29.8672,-93.9310,1.568,1111122 
TCOON,ioos:station:TCOON:524:1,2016-03-02T18:18:00Z,29.8672,-93.9310,1.627,1111122 
TCOON,ioos:station:TCOON:524:1,2016-03-02T19:18:00Z,29.8672,-93.9310,1.659,1111122 
TCOON,ioos:station:TCOON:524:1,2016-03-02T20:18:00Z,29.8672,-93.9310,1.688,1111122 
TCOON,ioos:station:TCOON:524:1,2016-03-02T21:18:00Z,29.8672,-93.9310,1.736,1111122 
TCOON,ioos:station:TCOON:524:1,2016-03-02T22:18:00Z,29.8672,-93.9310,1.756,1111122 
TCOON,ioos:station:TCOON:524:1,2016-03-02T23:18:00Z,29.8672,-93.9310,1.718,1111122 
TCOON,ioos:station:TCOON:524:1,2016-03-03T00:18:00Z,29.8672,-93.9310,1.796,1111122 
TCOON,ioos:station:TCOON:524:1,2016-03-03T01:18:00Z,29.8672,-93.9310,1.793,1111122 
TCOON,ioos:station:TCOON:524:1,2016-03-03T02:18:00Z,29.8672,-93.9310,1.834,1111122 
TCOON,ioos:station:TCOON:524:1,2016-03-03T03:18:00Z,29.8672,-93.9310,1.862,1111122 
TCOON,ioos:station:TCOON:524:1,2016-03-03T04:18:00Z,29.8672,-93.9310,1.889,1111122 
TCOON,ioos:station:TCOON:524:1,2016-03-03T05:18:00Z,29.8672,-93.9310,1.893,1111122 
TCOON,ioos:station:TCOON:524:1,2016-03-03T06:18:00Z,29.8672,-93.9310,1.904,1111122 
TCOON,ioos:station:TCOON:524:1,2016-03-03T07:18:00Z,29.8672,-93.9310,1.875,1111122 
TCOON,ioos:station:TCOON:524:1,2016-03-03T08:18:00Z,29.8672,-93.9310,1.832,1111122 
TCOON,ioos:station:TCOON:524:1,2016-03-03T09:18:00Z,29.8672,-93.9310,1.787,1111122 
TCOON,ioos:station:TCOON:524:1,2016-03-03T10:18:00Z,29.8672,-93.9310,1.735,1111122 
TCOON,ioos:station:TCOON:524:1,2016-03-03T11:18:00Z,29.8672,-93.9310,1.687,1111122 
TCOON,ioos:station:TCOON:524:1,2016-03-03T12:18:00Z,29.8672,-93.9310,1.652,1111122 
TCOON,ioos:station:TCOON:524:1,2016-03-03T13:18:00Z,29.8672,-93.9310,1.644,1111122 
TCOON,ioos:station:TCOON:524:1,2016-03-03T14:18:00Z,29.8672,-93.9310,1.657,1111122 
TCOON,ioos:station:TCOON:524:1,2016-03-03T15:18:00Z,29.8672,-93.9310,1.706,1111122 
TCOON,ioos:station:TCOON:524:1,2016-03-03T16:18:00Z,29.8672,-93.9310,1.718,1111122 
TCOON,ioos:station:TCOON:524:1,2016-03-03T17:18:00Z,29.8672,-93.9310,1.81,1111122 
TCOON,ioos:station:TCOON:524:1,2016-03-03T18:18:00Z,29.8672,-93.9310,1.782,1111122 
TCOON,ioos:station:TCOON:524:1,2016-03-03T19:24:00Z,29.8672,-93.9310,1.801,1111122 
TCOON,ioos:station:TCOON:524:1,2016-03-03T20:24:00Z,29.8672,-93.9310,1.818,1111122 
TCOON,ioos:station:TCOON:524:1,2016-03-03T21:18:00Z,29.8672,-93.9310,1.743,1111122 
TCOON,ioos:station:TCOON:524:1,2016-03-03T22:18:00Z,29.8672,-93.9310,1.797,1111122 
TCOON,ioos:station:TCOON:524:1,2016-03-03T23:18:00Z,29.8672,-93.9310,1.763,1111122 
TCOON,ioos:station:TCOON:524:1,2016-03-04T00:18:00Z,29.8672,-93.9310,1.675,1111122 
TCOON,ioos:station:TCOON:524:1,2016-03-04T01:18:00Z,29.8672,-93.9310,1.74,1111122 
TCOON,ioos:station:TCOON:524:1,2016-03-04T02:18:00Z,29.8672,-93.9310,1.742,1111122 
TCOON,ioos:station:TCOON:524:1,2016-03-04T03:18:00Z,29.8672,-93.9310,1.739,1111122 
TCOON,ioos:station:TCOON:524:1,2016-03-04T04:18:00Z,29.8672,-93.9310,1.684,1111122 
TCOON,ioos:station:TCOON:524:1,2016-03-04T05:18:00Z,29.8672,-93.9310,1.631,1111122 
TCOON,ioos:station:TCOON:524:1,2016-03-04T06:18:00Z,29.8672,-93.9310,1.568,1111122 
TCOON,ioos:station:TCOON:524:1,2016-03-04T07:18:00Z,29.8672,-93.9310,1.54,1111122 
TCOON,ioos:station:TCOON:524:1,2016-03-04T08:18:00Z,29.8672,-93.9310,1.457,1111122 
TCOON,ioos:station:TCOON:524:1,2016-03-04T09:36:00Z,29.8672,-93.9310,1.368,1111122 
TCOON,ioos:station:TCOON:524:1,2016-03-04T10:18:00Z,29.8672,-93.9310,1.366,1111122 
TCOON,ioos:station:TCOON:524:1,2016-03-04T11:18:00Z,29.8672,-93.9310,1.329,1111122 
TCOON,ioos:station:TCOON:524:1,2016-03-04T12:18:00Z,29.8672,-93.9310,1.29,1111122 
TCOON,ioos:station:TCOON:524:1,2016-03-04T13:18:00Z,29.8672,-93.9310,1.306,1111122 
TCOON,ioos:station:TCOON:524:1,2016-03-04T14:18:00Z,29.8672,-93.9310,1.348,1111122 
TCOON,ioos:station:TCOON:524:1,2016-03-04T15:18:00Z,29.8672,-93.9310,1.376,1111122 
TCOON,ioos:station:TCOON:524:1,2016-03-04T16:18:00Z,29.8672,-93.9310,1.436,1111122 
TCOON,ioos:station:TCOON:524:1,2016-03-04T17:18:00Z,29.8672,-93.9310,1.511,1111122 
TCOON,ioos:station:TCOON:524:1,2016-03-04T18:18:00Z,29.8672,-93.9310,1.541,1111122 
TCOON,ioos:station:TCOON:524:1,2016-03-04T19:18:00Z,29.8672,-93.9310,1.567,1111122 
TCOON,ioos:station:TCOON:524:1,2016-03-04T20:18:00Z,29.8672,-93.9310,1.607,1111122 
TCOON,ioos:station:TCOON:524:1,2016-03-04T21:18:00Z,29.8672,-93.9310,1.667,1111122 
TCOON,ioos:station:TCOON:524:1,2016-03-04T22:18:00Z,29.8672,-93.9310,1.668,1111122 
TCOON,ioos:station:TCOON:524:1,2016-03-04T23:18:00Z,29.8672,-93.9310,1.646,1111122 
TCOON,ioos:station:TCOON:524:1,2016-03-05T00:18:00Z,29.8672,-93.9310,1.701,1111122 
TCOON,ioos:station:TCOON:524:1,2016-03-05T01:18:00Z,29.8672,-93.9310,1.745,1111122 
TCOON,ioos:station:TCOON:524:1,2016-03-05T02:18:00Z,29.8672,-93.9310,1.763,1111122 
TCOON,ioos:station:TCOON:524:1,2016-03-05T03:18:00Z,29.8672,-93.9310,1.756,1111122 
TCOON,ioos:station:TCOON:524:1,2016-03-05T04:18:00Z,29.8672,-93.9310,1.783,1111122 
TCOON,ioos:station:TCOON:524:1,2016-03-05T05:18:00Z,29.8672,-93.9310,1.78,1111122 
TCOON,ioos:station:TCOON:524:1,2016-03-05T06:18:00Z,29.8672,-93.9310,1.757,1111122 
TCOON,ioos:station:TCOON:524:1,2016-03-05T07:18:00Z,29.8672,-93.9310,1.702,1111122 
TCOON,ioos:station:TCOON:524:1,2016-03-05T08:18:00Z,29.8672,-93.9310,1.651,1111122 
TCOON,ioos:station:TCOON:524:1,2016-03-05T09:30:00Z,29.8672,-93.9310,1.591,1111122 
TCOON,ioos:station:TCOON:524:1,2016-03-05T10:18:00Z,29.8672,-93.9310,1.566,1111122 
TCOON,ioos:station:TCOON:524:1,2016-03-05T11:18:00Z,29.8672,-93.9310,1.501,1111122 
TCOON,ioos:station:TCOON:524:1,2016-03-05T12:18:00Z,29.8672,-93.9310,1.446,1111122 
TCOON,ioos:station:TCOON:524:1,2016-03-05T13:18:00Z,29.8672,-93.9310,1.42,1111122 
TCOON,ioos:station:TCOON:524:1,2016-03-05T14:18:00Z,29.8672,-93.9310,1.41,1111122 
TCOON,ioos:station:TCOON:524:1,2016-03-05T15:18:00Z,29.8672,-93.9310,1.418,1111122 
TCOON,ioos:station:TCOON:524:1,2016-03-05T16:18:00Z,29.8672,-93.9310,1.448,1111122 
TCOON,ioos:station:TCOON:524:1,2016-03-05T17:18:00Z,29.8672,-93.9310,1.486,1111122 
TCOON,ioos:station:TCOON:524:1,2016-03-05T18:18:00Z,29.8672,-93.9310,1.515,1111122 
TCOON,ioos:station:TCOON:524:1,2016-03-05T19:18:00Z,29.8672,-93.9310,1.57,1111122 
TCOON,ioos:station:TCOON:524:1,2016-03-05T20:18:00Z,29.8672,-93.9310,1.63,1111122 
TCOON,ioos:station:TCOON:524:1,2016-03-05T21:18:00Z,29.8672,-93.9310,1.685,1111122 
TCOON,ioos:station:TCOON:524:1,2016-03-05T22:18:00Z,29.8672,-93.9310,1.738,1111122 
TCOON,ioos:station:TCOON:524:1,2016-03-05T23:18:00Z,29.8672,-93.9310,1.683,1111122 
TCOON,ioos:station:TCOON:524:1,2016-03-06T00:24:00Z,29.8672,-93.9310,1.687,1111122 
TCOON,ioos:station:TCOON:524:1,2016-03-06T01:18:00Z,29.8672,-93.9310,1.711,1111122 
TCOON,ioos:station:TCOON:524:1,2016-03-06T02:18:00Z,29.8672,-93.9310,1.659,1111122 
TCOON,ioos:station:TCOON:524:1,2016-03-06T03:18:00Z,29.8672,-93.9310,1.699,1111122 
TCOON,ioos:station:TCOON:524:1,2016-03-06T04:18:00Z,29.8672,-93.9310,1.684,1111122 
TCOON,ioos:station:TCOON:524:1,2016-03-06T05:18:00Z,29.8672,-93.9310,1.693,1111122 
TCOON,ioos:station:TCOON:524:1,2016-03-06T06:18:00Z,29.8672,-93.9310,1.681,1111122 
TCOON,ioos:station:TCOON:524:1,2016-03-06T07:18:00Z,29.8672,-93.9310,1.679,1111122 
TCOON,ioos:station:TCOON:524:1,2016-03-06T08:18:00Z,29.8672,-93.9310,1.665,1111122 
TCOON,ioos:station:TCOON:524:1,2016-03-06T09:36:00Z,29.8672,-93.9310,1.626,1111122 
TCOON,ioos:station:TCOON:524:1,2016-03-06T10:18:00Z,29.8672,-93.9310,1.572,1111122 
TCOON,ioos:station:TCOON:524:1,2016-03-06T11:18:00Z,29.8672,-93.9310,1.504,1111122 
TCOON,ioos:station:TCOON:524:1,2016-03-06T12:18:00Z,29.8672,-93.9310,1.418,1111122 
TCOON,ioos:station:TCOON:524:1,2016-03-06T13:18:00Z,29.8672,-93.9310,1.371,1111122 
TCOON,ioos:station:TCOON:524:1,2016-03-06T14:18:00Z,29.8672,-93.9310,1.348,1111122 
TCOON,ioos:station:TCOON:524:1,2016-03-06T15:18:00Z,29.8672,-93.9310,1.344,1111122 
TCOON,ioos:station:TCOON:524:1,2016-03-06T16:18:00Z,29.8672,-93.9310,1.37,1111122 
TCOON,ioos:station:TCOON:524:1,2016-03-06T17:18:00Z,29.8672,-93.9310,1.404,1111122 
TCOON,ioos:station:TCOON:524:1,2016-03-06T18:18:00Z,29.8672,-93.9310,1.451,1111122 
TCOON,ioos:station:TCOON:524:1,2016-03-06T19:18:00Z,29.8672,-93.9310,1.54,1111122 
TCOON,ioos:station:TCOON:524:1,2016-03-06T20:18:00Z,29.8672,-93.9310,1.63,1111122 
TCOON,ioos:station:TCOON:524:1,2016-03-06T21:18:00Z,29.8672,-93.9310,1.62,1111122 
TCOON,ioos:station:TCOON:524:1,2016-03-06T22:18:00Z,29.8672,-93.9310,1.661,1111122 
TCOON,ioos:station:TCOON:524:1,2016-03-06T23:18:00Z,29.8672,-93.9310,1.645,1111122 
TCOON,ioos:station:TCOON:524:1,2016-03-07T00:18:00Z,29.8672,-93.9310,1.671,1111122 
TCOON,ioos:station:TCOON:524:1,2016-03-07T01:18:00Z,29.8672,-93.9310,1.67,1111122 
TCOON,ioos:station:TCOON:524:1,2016-03-07T02:18:00Z,29.8672,-93.9310,1.605,1111122 
TCOON,ioos:station:TCOON:524:1,2016-03-07T03:18:00Z,29.8672,-93.9310,1.725,1111122 
TCOON,ioos:station:TCOON:524:1,2016-03-07T04:18:00Z,29.8672,-93.9310,1.726,1111122 
TCOON,ioos:station:TCOON:524:1,2016-03-07T05:18:00Z,29.8672,-93.9310,1.761,1111122 
TCOON,ioos:station:TCOON:524:1,2016-03-07T06:18:00Z,29.8672,-93.9310,1.815,1111122 
TCOON,ioos:station:TCOON:524:1,2016-03-07T07:18:00Z,29.8672,-93.9310,1.84,1111122 
TCOON,ioos:station:TCOON:524:1,2016-03-07T08:18:00Z,29.8672,-93.9310,1.86,1111122 
TCOON,ioos:station:TCOON:524:1,2016-03-07T09:42:00Z,29.8672,-93.9310,1.83,1111122 
TCOON,ioos:station:TCOON:524:1,2016-03-07T10:18:00Z,29.8672,-93.9310,1.813,1111122 
TCOON,ioos:station:TCOON:524:1,2016-03-07T11:18:00Z,29.8672,-93.9310,1.743,1111122 
TCOON,ioos:station:TCOON:524:1,2016-03-07T12:42:00Z,29.8672,-93.9310,1.635,1111122 
TCOON,ioos:station:TCOON:524:1,2016-03-07T13:24:00Z,29.8672,-93.9310,1.599,1111122 
TCOON,ioos:station:TCOON:524:1,2016-03-07T14:24:00Z,29.8672,-93.9310,1.562,1111122 
TCOON,ioos:station:TCOON:524:1,2016-03-07T15:24:00Z,29.8672,-93.9310,1.486,1111122 
TCOON,ioos:station:TCOON:524:1,2016-03-07T16:18:00Z,29.8672,-93.9310,1.523,1111122 
TCOON,ioos:station:TCOON:524:1,2016-03-07T17:24:00Z,29.8672,-93.9310,1.599,1111122 
TCOON,ioos:station:TCOON:524:1,2016-03-07T18:36:00Z,29.8672,-93.9310,1.614,1111122 
TCOON,ioos:station:TCOON:524:1,2016-03-07T19:18:00Z,29.8672,-93.9310,1.663,1111122 
TCOON,ioos:station:TCOON:524:1,2016-03-07T20:24:00Z,29.8672,-93.9310,1.792,1111122 
TCOON,ioos:station:TCOON:524:1,2016-03-07T21:24:00Z,29.8672,-93.9310,1.82,1111122 
TCOON,ioos:station:TCOON:524:1,2016-03-08T10:30:00Z,29.8672,-93.9310,1.914,1111122 
TCOON,ioos:station:TCOON:524:1,2016-03-08T11:24:00Z,29.8672,-93.9310,1.896,1111122 
TCOON,ioos:station:TCOON:524:1,2016-03-08T12:18:00Z,29.8672,-93.9310,1.842,1111122 
TCOON,ioos:station:TCOON:524:1,2016-03-08T13:18:00Z,29.8672,-93.9310,1.758,1111122 
TCOON,ioos:station:TCOON:524:1,2016-03-08T14:18:00Z,29.8672,-93.9310,1.68,1111122 
TCOON,ioos:station:TCOON:524:1,2016-03-08T15:18:00Z,29.8672,-93.9310,1.697,1111122 
TCOON,ioos:station:TCOON:524:1,2016-03-08T16:18:00Z,29.8672,-93.9310,1.698,1111122 
TCOON,ioos:station:TCOON:524:1,2016-03-08T17:18:00Z,29.8672,-93.9310,1.748,1111122 
TCOON,ioos:station:TCOON:524:1,2016-03-08T18:24:00Z,29.8672,-93.9310,1.794,1111122 
TCOON,ioos:station:TCOON:524:1,2016-03-08T19:24:00Z,29.8672,-93.9310,1.916,1111122 
TCOON,ioos:station:TCOON:524:1,2016-03-08T20:24:00Z,29.8672,-93.9310,1.967,1111122 
TCOON,ioos:station:TCOON:524:1,2016-03-08T21:24:00Z,29.8672,-93.9310,2.04,1111122 
TCOON,ioos:station:TCOON:524:1,2016-03-08T22:18:00Z,29.8672,-93.9310,2.028,1111122 
TCOON,ioos:station:TCOON:524:1,2016-03-08T23:18:00Z,29.8672,-93.9310,2.021,1111122 
TCOON,ioos:station:TCOON:524:1,2016-03-09T00:18:00Z,29.8672,-93.9310,1.998,1111122 
TCOON,ioos:station:TCOON:524:1,2016-03-09T01:18:00Z,29.8672,-93.9310,2.01,1111122 
TCOON,ioos:station:TCOON:524:1,2016-03-09T02:18:00Z,29.8672,-93.9310,2.0,1111122 
TCOON,ioos:station:TCOON:524:1,2016-03-09T03:24:00Z,29.8672,-93.9310,1.964,1111122 
TCOON,ioos:station:TCOON:524:1,2016-03-09T04:36:00Z,29.8672,-93.9310,1.961,1111122 
TCOON,ioos:station:TCOON:524:1,2016-03-09T05:48:00Z,29.8672,-93.9310,2.003,1111122 
TCOON,ioos:station:TCOON:524:1,2016-03-09T06:30:00Z,29.8672,-93.9310,1.989,1111122 
TCOON,ioos:station:TCOON:524:1,2016-03-09T07:18:00Z,29.8672,-93.9310,2.063,1111122 
TCOON,ioos:station:TCOON:524:1,2016-03-09T08:18:00Z,29.8672,-93.9310,2.072,1111122 
TCOON,ioos:station:TCOON:524:1,2016-03-09T09:42:00Z,29.8672,-93.9310,2.114,1111122 
TCOON,ioos:station:TCOON:524:1,2016-03-09T10:18:00Z,29.8672,-93.9310,2.134,1111122 
TCOON,ioos:station:TCOON:524:1,2016-03-09T11:18:00Z,29.8672,-93.9310,2.139,1111122 
TCOON,ioos:station:TCOON:524:1,2016-03-09T12:18:00Z,29.8672,-93.9310,2.09,1111122 
TCOON,ioos:station:TCOON:524:1,2016-03-09T13:18:00Z,29.8672,-93.9310,2.068,1111122 
TCOON,ioos:station:TCOON:524:1,2016-03-09T14:18:00Z,29.8672,-93.9310,2.01,1111122 
TCOON,ioos:station:TCOON:524:1,2016-03-09T15:18:00Z,29.8672,-93.9310,1.936,1111122 
TCOON,ioos:station:TCOON:524:1,2016-03-09T16:24:00Z,29.8672,-93.9310,1.927,1111122 
TCOON,ioos:station:TCOON:524:1,2016-03-09T17:24:00Z,29.8672,-93.9310,1.93,1111122 
TCOON,ioos:station:TCOON:524:1,2016-03-09T18:24:00Z,29.8672,-93.9310,1.978,1111122 
TCOON,ioos:station:TCOON:524:1,2016-03-09T19:24:00Z,29.8672,-93.9310,2.053,1111122 
TCOON,ioos:station:TCOON:524:1,2016-03-09T20:24:00Z,29.8672,-93.9310,2.152,1111122 
TCOON,ioos:station:TCOON:524:1,2016-03-09T21:18:00Z,29.8672,-93.9310,2.155,1111122 
TCOON,ioos:station:TCOON:524:1,2016-03-09T22:24:00Z,29.8672,-93.9310,2.153,1111122 
TCOON,ioos:station:TCOON:524:1,2016-03-09T23:18:00Z,29.8672,-93.9310,2.141,1111122 
TCOON,ioos:station:TCOON:524:1,2016-03-10T00:18:00Z,29.8672,-93.9310,2.195,1111122 
TCOON,ioos:station:TCOON:524:1,2016-03-10T01:18:00Z,29.8672,-93.9310,2.139,1111122 
TCOON,ioos:station:TCOON:524:1,2016-03-10T02:18:00Z,29.8672,-93.9310,2.05,1111122 
TCOON,ioos:station:TCOON:524:1,2016-03-10T03:18:00Z,29.8672,-93.9310,2.078,1111122 
TCOON,ioos:station:TCOON:524:1,2016-03-10T04:18:00Z,29.8672,-93.9310,1.966,1111122 
TCOON,ioos:station:TCOON:524:1,2016-03-10T05:18:00Z,29.8672,-93.9310,2.09,1111122 
TCOON,ioos:station:TCOON:524:1,2016-03-10T06:24:00Z,29.8672,-93.9310,2.004,1111122 
TCOON,ioos:station:TCOON:524:1,2016-03-10T07:24:00Z,29.8672,-93.9310,2.073,1111122 
TCOON,ioos:station:TCOON:524:1,2016-03-10T08:24:00Z,29.8672,-93.9310,2.13,1111122 
TCOON,ioos:station:TCOON:524:1,2016-03-10T09:54:00Z,29.8672,-93.9310,2.205,1111122 
TCOON,ioos:station:TCOON:524:1,2016-03-10T10:18:00Z,29.8672,-93.9310,2.221,1111122 
TCOON,ioos:station:TCOON:524:1,2016-03-10T12:18:00Z,29.8672,-93.9310,2.248,1111122 
TCOON,ioos:station:TCOON:524:1,2016-03-10T13:18:00Z,29.8672,-93.9310,2.227,1111122 
TCOON,ioos:station:TCOON:524:1,2016-03-10T14:18:00Z,29.8672,-93.9310,2.199,1111122 
TCOON,ioos:station:TCOON:524:1,2016-03-10T15:18:00Z,29.8672,-93.9310,2.168,1111122 
TCOON,ioos:station:TCOON:524:1,2016-03-10T16:24:00Z,29.8672,-93.9310,2.098,1111122 
TCOON,ioos:station:TCOON:524:1,2016-03-10T17:18:00Z,29.8672,-93.9310,2.087,1111122 
TCOON,ioos:station:TCOON:524:1,2016-03-10T18:24:00Z,29.8672,-93.9310,1.985,1111122 
TCOON,ioos:station:TCOON:524:1,2016-03-10T19:24:00Z,29.8672,-93.9310,2.105,1111122 
TCOON,ioos:station:TCOON:524:1,2016-03-10T20:18:00Z,29.8672,-93.9310,1.976,1111122 
TCOON,ioos:station:TCOON:524:1,2016-03-10T21:18:00Z,29.8672,-93.9310,2.135,1111122 
TCOON,ioos:station:TCOON:524:1,2016-03-10T22:24:00Z,29.8672,-93.9310,2.113,1111122 
TCOON,ioos:station:TCOON:524:1,2016-03-10T23:24:00Z,29.8672,-93.9310,2.128,1111122 
TCOON,ioos:station:TCOON:524:1,2016-03-11T00:24:00Z,29.8672,-93.9310,2.105,1111122 
TCOON,ioos:station:TCOON:524:1,2016-03-11T01:24:00Z,29.8672,-93.9310,2.02,1111122 
TCOON,ioos:station:TCOON:524:1,2016-03-11T02:24:00Z,29.8672,-93.9310,2.106,1111122 
TCOON,ioos:station:TCOON:524:1,2016-03-11T03:18:00Z,29.8672,-93.9310,2.025,1111122 
TCOON,ioos:station:TCOON:524:1,2016-03-11T04:24:00Z,29.8672,-93.9310,1.967,1111122 
TCOON,ioos:station:TCOON:524:1,2016-03-11T05:24:00Z,29.8672,-93.9310,1.915,1111122 
TCOON,ioos:station:TCOON:524:1,2016-03-11T06:24:00Z,29.8672,-93.9310,1.901,1111122 
TCOON,ioos:station:TCOON:524:1,2016-03-11T07:24:00Z,29.8672,-93.9310,1.887,1111122 
TCOON,ioos:station:TCOON:524:1,2016-03-11T08:24:00Z,29.8672,-93.9310,1.958,1111122 
TCOON,ioos:station:TCOON:524:1,2016-03-11T09:42:00Z,29.8672,-93.9310,1.99,1111122 
TCOON,ioos:station:TCOON:524:1,2016-03-11T10:24:00Z,29.8672,-93.9310,1.936,1111122 
TCOON,ioos:station:TCOON:524:1,2016-03-11T11:24:00Z,29.8672,-93.9310,1.998,1111122 
TCOON,ioos:station:TCOON:524:1,2016-03-11T12:24:00Z,29.8672,-93.9310,2.025,1111122 
TCOON,ioos:station:TCOON:524:1,2016-03-11T13:24:00Z,29.8672,-93.9310,2.064,1111122 
TCOON,ioos:station:TCOON:524:1,2016-03-11T14:24:00Z,29.8672,-93.9310,2.048,1111122 
TCOON,ioos:station:TCOON:524:1,2016-03-11T15:18:00Z,29.8672,-93.9310,2.071,1111122 
TCOON,ioos:station:TCOON:524:1,2016-03-11T16:24:00Z,29.8672,-93.9310,1.832,1111122 
TCOON,ioos:station:TCOON:524:1,2016-03-11T17:30:00Z,29.8672,-93.9310,1.832,1111122 
TCOON,ioos:station:TCOON:524:1,2016-03-11T18:24:00Z,29.8672,-93.9310,1.956,1111122 
TCOON,ioos:station:TCOON:524:1,2016-03-11T19:24:00Z,29.8672,-93.9310,1.883,1111122 
TCOON,ioos:station:TCOON:524:1,2016-03-11T20:24:00Z,29.8672,-93.9310,1.964,1111122 
TCOON,ioos:station:TCOON:524:1,2016-03-11T21:24:00Z,29.8672,-93.9310,1.904,1111122 
TCOON,ioos:station:TCOON:524:1,2016-03-11T22:24:00Z,29.8672,-93.9310,1.944,1111122 
TCOON,ioos:station:TCOON:524:1,2016-03-11T23:18:00Z,29.8672,-93.9310,1.981,1111122 
TCOON,ioos:station:TCOON:524:1,2016-03-12T00:18:00Z,29.8672,-93.9310,1.95,1111122 
TCOON,ioos:station:TCOON:524:1,2016-03-12T01:18:00Z,29.8672,-93.9310,1.969,1111122 
TCOON,ioos:station:TCOON:524:1,2016-03-12T02:18:00Z,29.8672,-93.9310,1.933,1111122 
TCOON,ioos:station:TCOON:524:1,2016-03-12T03:24:00Z,29.8672,-93.9310,1.825,1111122 
TCOON,ioos:station:TCOON:524:1,2016-03-12T04:24:00Z,29.8672,-93.9310,1.801,1111122 
TCOON,ioos:station:TCOON:524:1,2016-03-12T07:00:00Z,29.8672,-93.9310,1.777,1111122 
TCOON,ioos:station:TCOON:524:1,2016-03-12T07:24:00Z,29.8672,-93.9310,1.79,1111122 
TCOON,ioos:station:TCOON:524:1,2016-03-12T08:24:00Z,29.8672,-93.9310,1.821,1111122 
TCOON,ioos:station:TCOON:524:1,2016-03-12T09:42:00Z,29.8672,-93.9310,1.914,1111122 
TCOON,ioos:station:TCOON:524:1,2016-03-12T10:24:00Z,29.8672,-93.9310,1.919,1111122 
TCOON,ioos:station:TCOON:524:1,2016-03-12T11:24:00Z,29.8672,-93.9310,1.981,1111122 
TCOON,ioos:station:TCOON:524:1,2016-03-12T12:24:00Z,29.8672,-93.9310,2.078,1111122 
TCOON,ioos:station:TCOON:524:1,2016-03-12T13:24:00Z,29.8672,-93.9310,2.09,1111122 
TCOON,ioos:station:TCOON:524:1,2016-03-12T14:24:00Z,29.8672,-93.9310,2.079,1111122 
TCOON,ioos:station:TCOON:524:1,2016-03-12T15:24:00Z,29.8672,-93.9310,2.106,1111122 
TCOON,ioos:station:TCOON:524:1,2016-03-12T16:24:00Z,29.8672,-93.9310,2.04,1111122 
TCOON,ioos:station:TCOON:524:1,2016-03-12T17:24:00Z,29.8672,-93.9310,2.038,1111122 
TCOON,ioos:station:TCOON:524:1,2016-03-12T18:24:00Z,29.8672,-93.9310,2.018,1111122 
TCOON,ioos:station:TCOON:524:1,2016-03-12T19:24:00Z,29.8672,-93.9310,1.988,1111122 
TCOON,ioos:station:TCOON:524:1,2016-03-12T20:24:00Z,29.8672,-93.9310,1.941,1111122 
TCOON,ioos:station:TCOON:524:1,2016-03-12T21:24:00Z,29.8672,-93.9310,2.018,1111122 
TCOON,ioos:station:TCOON:524:1,2016-03-12T22:24:00Z,29.8672,-93.9310,2.038,1111122 
TCOON,ioos:station:TCOON:524:1,2016-03-12T23:24:00Z,29.8672,-93.9310,2.065,1111122 
TCOON,ioos:station:TCOON:524:1,2016-03-13T00:24:00Z,29.8672,-93.9310,2.065,1111122 
TCOON,ioos:station:TCOON:524:1,2016-03-13T01:24:00Z,29.8672,-93.9310,2.07,1111122 
TCOON,ioos:station:TCOON:524:1,2016-03-13T02:24:00Z,29.8672,-93.9310,2.073,1111122 
TCOON,ioos:station:TCOON:524:1,2016-03-13T03:18:00Z,29.8672,-93.9310,2.007,1111122 
TCOON,ioos:station:TCOON:524:1,2016-03-13T04:24:00Z,29.8672,-93.9310,1.943,1111122 
TCOON,ioos:station:TCOON:524:1,2016-03-13T05:24:00Z,29.8672,-93.9310,1.924,1111122 
TCOON,ioos:station:TCOON:524:1,2016-03-13T06:24:00Z,29.8672,-93.9310,1.883,1111122 
TCOON,ioos:station:TCOON:524:1,2016-03-13T07:24:00Z,29.8672,-93.9310,1.844,1111122 
TCOON,ioos:station:TCOON:524:1,2016-03-13T08:24:00Z,29.8672,-93.9310,1.802,1111122 
TCOON,ioos:station:TCOON:524:1,2016-03-13T09:36:00Z,29.8672,-93.9310,1.844,1111122 
TCOON,ioos:station:TCOON:524:1,2016-03-13T10:24:00Z,29.8672,-93.9310,1.877,1111122 
TCOON,ioos:station:TCOON:524:1,2016-03-13T11:24:00Z,29.8672,-93.9310,1.929,1111122 
TCOON,ioos:station:TCOON:524:1,2016-03-13T12:24:00Z,29.8672,-93.9310,1.968,1111122 
TCOON,ioos:station:TCOON:524:1,2016-03-13T13:24:00Z,29.8672,-93.9310,2.045,1111122 
TCOON,ioos:station:TCOON:524:1,2016-03-13T14:24:00Z,29.8672,-93.9310,2.128,1111122 
TCOON,ioos:station:TCOON:524:1,2016-03-13T15:24:00Z,29.8672,-93.9310,2.065,1111122 
TCOON,ioos:station:TCOON:524:1,2016-03-13T16:24:00Z,29.8672,-93.9310,2.084,1111122 